Location: *
(53.9002°N, 27.5624°E)
Time: 21:35:12
(UTC+00:00)

CSL-04 Rocket - Pass Details

Date: 12 November 2019
Orbit: 806 x 860 km, 99.0° (Epoch: 13 December)

Event Time Altitude Azimuth Distance (km) Brightness Sun altitude
Rises 15:56:47 0° 150° (SSE) 3,364 6.6 -14.7°
Reaches altitude 10° 15:59:10 10° 147° (SSE) 2,427 5.9 -15.0°
Maximum altitude 16:04:26 62° 68° (ENE) 920 3.6 -15.8°
Drops below altitude 10° 16:09:42 10° 349° (NNW) 2,413 6.1 -16.5°
Sets 16:12:03 0° 346° (NNW) 3,344 6.9 -16.9°
